Regional Weather Roundup
Issued by NWS

Home | Current Version | Previous Version | Text Only | Print | Product List | Glossary Off
Versions: 1 2 3 4 5 6 7 8 9 10 11 12 13 14 15 16 17 18 19 20 21 22 23 24 25 26 27 28 29 30 31 32 33 34 35 36 37 38 39 40 41 42 43 44 45 46 47 48 49 50

000
ASUS43 KMKX 290321
RWRWI

WISCONSIN REGIONAL WEATHER ROUNDUP
NATIONAL WEATHER SERVICE MILWAUKEE/SULLIVAN WI
1000 PM CDT THU APR 28 2016

NOTE: "FAIR" INDICATES FEW OR NO CLOUDS BELOW 12,000 FEET WITH NO
SIGNIFICANT WEATHER AND/OR OBSTRUCTIONS TO VISIBILITY.

WIZ001-002-006>008-014>016-023>028-290400-
NORTHWEST WISCONSIN

CITY           SKY/WX    TMP DP  RH WIND       PRES   REMARKS
SUPERIOR ARPT  PTCLDY    36  31  83 NE7       30.16R WCI  30
ASHLAND        CLOUDY    33  29  85 N6        30.13S WCI  28
HAYWARD        CLOUDY    40  25  55 N3        30.11R
SIREN          CLOUDY    43  24  47 E5        30.12R
CUMBERLAND     CLOUDY    41  34  75 SW5       30.10S
RICE LAKE      CLOUDY    41  36  81 SW3       30.12S
CHETEK         CLOUDY    40  37  87 CALM      30.11R
LADYSMITH      CLOUDY    43  35  74 SW6       30.11R
EAU CLAIRE     LGT RAIN  39  38  96 CALM      30.11R
MENOMONIE      LGT RAIN  40  39  99 CALM      30.12R
NEW RICHMOND   CLOUDY    39  39  98 CALM      30.12S
OSCEOLA        LGT RAIN  41  41 100 W7        30.14S
$$

WIZ003>005-009-010-017-018-290400-
NORTH CENTRAL WISCONSIN

CITY           SKY/WX    TMP DP  RH WIND       PRES   REMARKS
MANITOWISH WTR CLOUDY    42  25  51 NE7       30.07R
ARBOR VITAE    CLOUDY    46  26  46 CALM      30.07R
WOODRUFF       CLOUDY    46  26  46 CALM      30.07R
RHINELANDER    CLOUDY    45  26  47 E7        30.09R
EAGLE RIVER    CLOUDY    46  20  36 CALM      30.07R
LAND O LAKES   CLOUDY    42  26  52 NE3       30.09S
PHILLIPS       MOCLDY    43  33  66 SE7       30.07R
TOMAHAWK       CLOUDY    42  31  65 CALM      30.09R
MEDFORD        LGT RAIN  37  37 100 SE5       30.09R WCI  34
MERRILL        LGT RAIN  38  35  89 S6        30.10R WCI  34
$$

WIZ029-030-035-036-043>047-290400-
CENTRAL WISCONSIN

CITY           SKY/WX    TMP DP  RH WIND       PRES   REMARKS
WAUSAU         LGT RAIN  39  35  86 E6        30.09R WCI  35
MOSINEE        LGT RAIN  36  36 100 E6        30.11R WCI  31
MARSHFIELD     LGT RAIN  38  35  89 E10       30.09S FOG     WCI  31
STEVENS POINT  RAIN      35  33  94 N6        30.10S WCI  30
WAUPACA        CLOUDY    42  32  68 N5        30.09R
WAUTOMA        NOT AVBL
WISC RAPIDS    CLOUDY    38  33  82 NE8       30.10R WCI  32
CAMP DOUGLAS   NOT AVBL
$$

WIZ011>013-019>022-031-037>040-048>050-290400-
NORTHEAST WISCONSIN

CITY           SKY/WX    TMP DP  RH WIND       PRES   REMARKS
ANTIGO         DRIZZLE   36  34  91 CALM      30.10R
SHAWANO        CLOUDY    41  37  86 N14       30.09F
OCONTO         CLOUDY    42  32  68 N6        30.08S
STURGEON BAY   CLOUDY    43  28  56 NE5       30.10S
GREEN BAY      CLOUDY    43  33  68 N5        30.08R
MANITOWOC      CLOUDY    42  34  73 MISG      30.06R
APPLETON       CLOUDY    41  30  65 NE8       30.05S
CLINTONVILLE   CLOUDY    37  34  87 N9        30.08S WCI  31
OSHKOSH        CLOUDY    42  34  73 N8        30.06R
$$

WIZ032>034-041-042-053>061-290400-
SOUTHWEST WISCONSIN

CITY           SKY/WX    TMP DP  RH WIND       PRES   REMARKS
LA CROSSE      CLOUDY    41  36  82 NE6       30.09R
SPARTA         CLOUDY    38  37  98 N3        30.10R
VIROQUA        CLOUDY    38  37  97 E9        30.06R WCI  32
BOSCOBEL       LGT RAIN  42  40  92 VRB3      30.06R FOG
PRAIRIE DU CHI CLOUDY    42  38  88 CALM      30.06R
PLATTEVILLE    CLOUDY    41  40  97 NE6       30.03S
$$

WIZ056-057-062-063-064-067-068-290400-
SOUTH CENTRAL WISCONSIN

CITY           SKY/WX    TMP DP  RH WIND       PRES   REMARKS
REEDSBURG      DRIZZLE   38  37  96 NE5       30.05F WCI  35
BARABOO/DELLS  DRIZZLE   38  37  95 NE3       30.06S
LONE ROCK      LGT RAIN  41  39  93 E5        30.06S FOG
MINERAL POINT  LGT RAIN  41  39  93 NE8       30.04R
MADISON        LGT RAIN  39  37  92 NE8       30.05R WCI  33
MIDDLETON      CLOUDY    40  39  96 NE6       30.05S
WATERTOWN      CLOUDY    39  39 100 E5        30.05R FOG
MONROE         DRIZZLE   37  37 100 NE9       30.03R WCI  31
JANESVILLE     NOT AVBL
$$

WIZ051-052-058>065-066-070>072-290400-
SOUTHEAST WISCONSIN

CITY           SKY/WX    TMP DP  RH WIND       PRES   REMARKS
MILWAUKEE      DRIZZLE   40  38  93 NE10      30.04R WCI  33
WAUKESHA       CLOUDY    37  36  93 NE5       30.05R FOG     WCI  34
MILWAUKEE/TIMM CLOUDY    39  36  87 E8        30.05S FOG     WCI  34
RACINE         CLOUDY    41  38  89 NE7       30.05R
BURLINGTON     CLOUDY    38  38  99 NE5       30.03S FOG     WCI  35
KENOSHA        CLOUDY    41  39  93 NE6       30.03R FOG
FOND DU LAC    CLOUDY    42  37  82 NE7       30.07R
SHEBOYGAN      CLOUDY    41  34  76 CALM      30.05R
WEST BEND      CLOUDY    39  34  81 E7        30.05R WCI  34
JUNEAU         CLOUDY    39  37  93 NE3       30.07R
$$

LSZ147-162-290400-
LAKE SUPERIOR

STATION/POSITION TIME  TEMP    WIND        PRES    WAVE
                       AIR SEA DIR/SP/G            HT/PER
                 (UTC) (F)     (DEG/KT/KT) (MB)    (FT/S)
W MID LAKE BUOY  0050   37 36   70/ 12/ 14 1020.9    3/ 5
DEVILS ISLAND    0300   37      20/  9/ 10 1021.7R
SAXON HARBOR     0200   39      30/  6/  8 1019.6S
$$

LMZ867-665-643>646-290400-
LAKE MICHIGAN

STATION/POSITION TIME  TEMP    WIND        PRES    WAVE
                       AIR SEA DIR/SP/G            HT/PER
                 (UTC) (F)     (DEG/KT/KT) (MB)    (FT/S)
CHAMBERS ISLAND  0200   40      10/  8/ 10 1018.6S
N MID LAKE BUOY  0050   40 38   60/ 12/ 12 1017.8    1/ 3
NORTHPORT PIER   0200   43      40/  7/  9 1018.6R
ALGOMA LAKESHORE 0115           60/ 11/ 15   N/A
KEWAUNEE LAKESHO 0200                      1017.5R
SHEBOYGAN LAKESH 0300   41      10/ 10/ 11 1018.5R
PORT WASHINGTON  0200   43      60/ 10/ 11 1017.9
S MID LAKE BUOY  0050   40 40   70/ 14/ 16 1015.2    2/ 4
KENOSHA   LAKESH 0300   41      30/ 10/ 12 1016.9R
$$

TC  - TEMPERATURE IN CELSIUS
VSB - VISIBILITY IN STATUTE MILES
WCI - WIND CHILL INDEX
HX  - HEAT INDEX




USA.gov is the U.S. government's official web portal to all federal, state and local government web resources and services.